Flag for Belarus Weather past 2 weeks in Gomel, Belarus

Now
81 °F

Sunny.


Feels Like: 80 °F
Forecast: 65 / 86 °F
Wind: 10 mph from Southwest

Location: Gomel'

Current Time: Aug 3, 2015 at 12:45:45 PM

Latest Report: Aug 3, 2015 at 12:00 PM


Visibility: 10 mi

Pressure: 30.24 "Hg

Humidity: 39%

Dew point: 54 °F

Location of GomelLocation

Historic Weather in Gomel — Graph

°F

Gomel temperature yesterday

Maximum temperature yesterday: 77 °F (at 5:00 PM)
Minimum temperature yesterday: 55 °F (at 3:00 AM)
Average temperature yesterday: 68 °F

Past Weeks' High & Low Weather Summary

 TemperatureHumidityPressure
High93 °F (Jul 26, 3:00 PM)100% (Jul 20, 6:00 AM)30.30 "Hg (Jul 20, 6:00 AM)
Low54 °F (Jul 22, 4:00 AM)29% (Jul 31, 3:00 PM)29.62 "Hg (Jul 20, 7:30 AM)
Average69 °F64%29.91 "Hg
* Reported Jul 19 11:00 AM — Aug 3 11:30 AM, Gomel, Weather by CustomWeather, © 2015

Note: Actual official high and low records may vary slightly from our data, if they occured in-between our weather recording intervals... More about our weather records

Advertising

Gomel weather history for previous 24 hours

 ConditionsComfort  
Time TempWeatherWind HumidityBarometerVisibility
11:30 AM
Mon, Aug 3
77 °FSunny.10 mph47%30.24 "Hg10 mi
11:00 AM77 °FSunny.10 mph47%30.24 "Hg10 mi
10:30 AM73 °FSunny.8 mph50%30.24 "Hg10 mi
10:00 AM73 °FSunny.6 mph50%30.24 "Hg10 mi
9:30 AM70 °FSunny.8 mph60%30.24 "Hg10 mi
9:00 AM70 °FSunny.6 mph60%30.24 "Hg10 mi
8:30 AM63 °FSunny.6 mph68%30.24 "Hg10 mi
8:00 AM63 °FSunny.6 mph68%30.24 "Hg10 mi
7:30 AM59 °FSunny.6 mph77%30.24 "Hg10 mi
7:00 AM59 °FSunny.6 mph77%30.24 "Hg10 mi
6:30 AM55 °FSunny.6 mph82%30.24 "Hg10 mi
6:00 AM55 °FClear.3 mph82%30.24 "Hg10 mi
5:00 AM57 °FClear.3 mph77%30.27 "Hg10 mi
4:00 AM57 °FClear.3 mph77%30.27 "Hg10 mi
3:00 AM59 °FClear.6 mph72%30.27 "Hg10 mi
2:00 AM59 °FClear.6 mph72%30.27 "Hg10 mi
1:00 AM61 °FClear.3 mph68%30.27 "Hg10 mi
12:00 AM63 °FClear.3 mph64%30.27 "Hg10 mi
11:00 PM
Sun, Aug 2
64 °FClear.3 mph60%30.27 "Hg10 mi
10:00 PM68 °FClear.3 mph53%30.27 "Hg10 mi
9:00 PM73 °FSunny.3 mph44%30.27 "Hg10 mi
8:00 PM73 °FSunny.3 mph44%30.27 "Hg10 mi
7:30 PM75 °FSunny.3 mph36%30.27 "Hg10 mi
7:00 PM75 °FSunny.3 mph36%30.27 "Hg10 mi
6:30 PM77 °FSunny.1 mph34%30.27 "Hg10 mi
6:00 PM77 °FSunny.1 mph34%30.27 "Hg10 mi
5:30 PM77 °FSunny.1 mph36%30.27 "Hg10 mi
5:00 PM77 °FSunny.6 mph36%30.27 "Hg10 mi
4:30 PM75 °FSunny.6 mph36%30.27 "Hg10 mi
4:00 PM75 °FSunny.3 mph36%30.27 "Hg10 mi
3:30 PM75 °FSunny.6 mph31%30.27 "Hg10 mi
3:00 PM75 °FSunny.3 mph31%30.30 "Hg10 mi
2:30 PM75 °FSunny.3 mph39%30.30 "Hg10 mi
2:00 PM75 °FSunny.3 mph39%30.30 "Hg10 mi
1:30 PM73 °FSunny.3 mph41%30.30 "Hg10 mi
1:00 PM73 °FSunny.3 mph41%30.30 "Hg10 mi
12:30 PM73 °FScattered clouds.3 mph41%30.30 "HgN/A
12:00 PM73 °FScattered clouds.3 mph41%30.30 "HgN/A
Weather by CustomWeather, © 2015

See weather overviewHow to use our weather pages